Home   Weather   L'viv   Past weeks

Flag for Ukraine Past Weather in L'viv, Ukraine — Yesterday and Last 2 Weeks

Now
79 °F

Broken clouds.


Feels Like: 80 °F
Forecast: 61 / 85 °F
Wind: 3 mph from Southeast

Location: L'Viv Airport

Current Time: Aug 17, 2017 at 8:43:02 pm

Latest Report: Aug 17, 2017 at 8:00 pm


Visibility: N/A

Pressure: 30.09 "Hg

Humidity: 51%

Dew Point: 59 °F

Location of L'vivLocation

Past Weather in L'viv — Graph

°F

L'viv Temperature Yesterday

Maximum temperature yesterday: 82 °F (at 3:30 pm)
Minimum temperature yesterday: 54 °F (at 5:00 am)
Average temperature yesterday: 68 °F

High & Low Weather Summary for the Past Weeks

 TemperatureHumidityPressure
High91 °F (Aug 4, 2:30 pm)100% (Aug 11, 3:00 am)30.27 "Hg (Aug 11, 3:00 am)
Low52 °F (Aug 14, 5:30 am)27% (Aug 12, 5:00 pm)29.83 "Hg (Aug 12, 5:30 pm)
Average71 °F66%30.08 "Hg
* Reported Aug 2 7:00 pm — Aug 17 7:30 pm, L'viv. Weather by CustomWeather, © 2017

Note: Actual official high and low records may vary slightly from our data, if they occured in-between our weather recording intervals... More about our weather records

Advertising

L'viv Weather History for the Previous 24 Hours

Scroll right to see more
 ConditionsComfort  
Time TempWeatherWind HumidityBarometerVisibility
7:30 pm
Thu, Aug 17
79 °FBroken clouds.3 mph48%30.09 "HgN/A
7:00 pm81 °FThundershowers. Partly sunny.10 mph45%30.09 "HgN/A
6:30 pm81 °FPartly sunny.10 mph48%30.09 "HgN/A
6:00 pm81 °FThundershowers. Partly sunny.10 mph48%30.09 "HgN/A
5:30 pm84 °FThundershowers. Broken clouds.8 mph40%30.09 "HgN/A
5:20 pm86 °FThundershowers. Broken clouds.6 mph35%30.09 "HgN/A
5:00 pm88 °FBroken clouds.6 mph35%30.09 "HgN/A
4:30 pm86 °FBroken clouds.1 mph35%30.09 "HgN/A
4:00 pm84 °FBroken clouds.1 mph37%30.09 "HgN/A
3:30 pm86 °FPassing clouds.3 mph35%30.12 "HgN/A
3:00 pm86 °FPassing clouds.3 mph35%30.12 "HgN/A
2:30 pm84 °FPassing clouds.3 mph37%30.12 "HgN/A
2:00 pm84 °FPassing clouds.3 mph40%30.12 "HgN/A
1:30 pm84 °FPassing clouds.3 mph37%30.12 "HgN/A
1:00 pm82 °FSunny.3 mph37%30.15 "Hg10 mi
12:30 pm82 °FSunny.3 mph37%30.15 "Hg10 mi
12:00 pm81 °FPassing clouds.3 mph42%30.15 "HgN/A
11:30 am81 °FPassing clouds.3 mph39%30.15 "HgN/A
11:00 am79 °FSunny.1 mph45%30.15 "Hg10 mi
10:30 am77 °FPassing clouds.3 mph44%30.15 "HgN/A
10:00 am73 °FPassing clouds.3 mph53%30.15 "HgN/A
9:30 am72 °FScattered clouds.3 mph61%30.15 "HgN/A
9:00 am70 °FPassing clouds.3 mph60%30.15 "HgN/A
8:30 am66 °FSunny.3 mph73%30.12 "Hg10 mi
8:00 am64 °FSunny.1 mph83%30.12 "Hg10 mi
7:30 am61 °FSunny.No wind94%30.12 "Hg10 mi
7:00 am59 °FSunny.No wind88%30.12 "Hg10 mi
6:30 am57 °FSunny.No wind100%30.12 "Hg10 mi
6:00 am59 °FClear.No wind94%30.12 "Hg10 mi
5:30 am59 °FClear.No wind100%30.12 "Hg10 mi
5:00 am59 °FClear.No wind100%30.12 "Hg10 mi
4:30 am59 °FClear.No wind100%30.12 "Hg10 mi
4:00 am59 °FClear.No wind100%30.12 "Hg10 mi
3:00 am59 °FClear.No wind94%30.12 "Hg10 mi
2:30 am59 °FClear.No wind100%30.12 "Hg10 mi
2:00 am61 °FClear.No wind94%30.12 "Hg10 mi
1:30 am61 °FClear.No wind88%30.12 "Hg10 mi
1:00 am63 °FClear.No wind88%30.12 "Hg10 mi
12:30 am63 °FClear.No wind88%30.12 "Hg10 mi
12:00 am63 °FClear.No wind88%30.12 "Hg10 mi
11:30 pm
Wed, Aug 16
64 °FClear.No wind83%30.12 "Hg10 mi
11:00 pm66 °FClear.No wind78%30.12 "Hg10 mi
10:30 pm66 °FClear.No wind83%30.12 "Hg10 mi
10:00 pm68 °FClear.No wind73%30.12 "Hg10 mi
9:30 pm68 °FClear.1 mph78%30.15 "Hg10 mi
9:00 pm70 °FClear.No wind73%30.12 "Hg10 mi
8:30 pm75 °FSunny.3 mph57%30.12 "Hg10 mi
8:00 pm77 °FSunny.3 mph51%30.12 "Hg10 mi
Weather by CustomWeather, © 2017

See weather overviewHow to use our weather pages